Wind_Speed
27 28 30 31 32 34 38 40 42 44 45 46 47 47 47 49 53 63 73 78 87 94 97 94 78 60 50 42 37 32 29 31 36 40 45 49 53 57 58 57 56 56 57 56
26 24 25 28 32 35 39 42 44 43 46 46 47 45 47 51 58 66 73 83 92 94 96 81 68 50 42 34 30 29 33 38 43 47 52 57 61 65 67 68 65 63 62 62
19 21 25 30 35 38 40 42 43 45 46 44 44 47 51 55 60 64 75 84 90 93 83 80 58 45 35 29 28 32 36 41 46 51 56 63 69 73 74 74 69 64 57 54
20 23 27 32 38 41 43 46 47 48 46 43 44 46 51 56 60 65 76 85 87 90 80 76 51 41 30 28 29 33 39 44 49 54 60 66 71 72 69 62 60 57 55 50
20 24 29 33 39 43 48 50 52 51 48 45 47 48 53 60 63 74 80 86 87 89 81 70 45 36 28 28 30 35 41 46 50 55 63 71 76 74 66 57 51 48 46 42
21 25 29 33 39 44 48 52 54 52 47 45 47 49 57 59 70 76 83 86 90 91 80 60 41 32 25 27 31 37 44 48 53 60 69 77 79 70 61 54 48 42 37 35
22 26 30 35 39 44 49 52 52 48 43 43 46 54 61 63 67 80 87 87 91 84 79 54 38 30 24 28 33 40 46 51 56 63 72 81 82 71 61 52 48 44 40 33
22 27 31 36 39 44 49 53 55 50 44 45 49 55 61 62 73 79 84 88 90 80 80 50 38 31 26 29 34 41 47 53 58 65 74 82 84 74 62 53 49 46 38 32
23 27 32 37 41 45 50 54 54 46 43 43 47 56 62 65 71 77 84 90 89 82 76 48 37 30 27 30 36 42 47 52 58 65 74 82 85 78 68 60 50 45 41 33
25 30 33 38 42 46 50 53 50 42 38 42 50 56 64 64 74 77 89 91 89 81 72 45 37 29 26 30 35 40 45 52 58 64 73 81 87 82 73 64 55 45 41 35
27 31 34 38 42 46 49 52 47 41 39 41 48 55 63 71 73 80 91 90 86 81 68 45 39 30 27 30 34 39 45 51 57 65 71 80 88 89 80 72 59 49 41 36
27 31 35 38 42 45 49 50 44 40 38 43 51 58 64 65 76 84 87 89 85 77 69 46 41 31 29 29 33 38 44 49 56 63 69 76 85 91 88 77 68 58 48 40
28 31 35 39 42 45 48 48 42 40 39 42 49 57 64 67 75 82 87 86 85 78 72 51 42 32 31 28 32 37 43 48 54 60 66 72 80 88 92 85 77 67 57 48
28 31 34 38 41 43 47 46 41 40 39 43 50 53 64 67 72 77 82 81 79 77 69 63 42 33 31 31 31 35 41 47 52 58 63 69 76 82 87 92 86 75 65 57
28 31 34 37 41 44 47 46 41 39 39 42 49 56 64 69 75 81 82 84 85 75 73 71 47 35 31 31 31 34 39 45 50 55 60 66 71 76 81 88 93 87 77 66
28 30 34 35 39 45 47 45 42 41 40 41 49 56 63 69 75 78 85 87 89 80 74 70 63 38 32 29 31 34 37 43 48 51 56 62 68 72 76 82 88 93 89 78
27 30 31 33 37 44 47 45 43 39 39 40 47 54 59 68 72 77 81 85 87 89 79 73 65 55 37 32 31 34 36 39 44 48 53 58 64 68 71 77 83 89 92 92
26 26 28 31 36 40 45 45 44 39 38 39 45 52 57 64 71 75 80 82 87 85 88 76 74 67 48 36 31 33 35 38 41 44 49 54 59 64 67 72 78 83 87 91
24 23 28 30 35 38 43 46 46 42 38 38 43 50 55 60 66 73 78 82 86 89 89 89 79 76 63 44 35 31 32 35 38 42 46 51 55 59 63 69 73 77 81 86
23 24 26 29 33 35 40 45 45 45 38 37 41 47 53 58 65 70 77 79 83 86 90 87 88 90 78 66 44 33 31 33 34 38 42 46 50 54 58 63 69 73 76 80
21 20 24 27 31 35 39 43 44 45 40 36 38 45 50 55 61 66 73 78 81 85 88 91 92 92 93 84 66 43 35 33 33 34 37 41 45 48 53 57 63 69 74 78
19 18 23 27 30 34 36 41 44 44 41 36 37 42 48 53 57 62 69 74 78 83 87 90 95 96 94 92 84 68 42 34 33 33 33 36 40 44 48 51 56 61 68 73
17 16 19 26 29 34 35 38 42 44 41 35 36 40 45 50 54 59 65 70 76 79 84 87 89 96 98 94 91 78 71 46 35 33 33 33 36 40 44 47 51 56 61 66
18 25 25 27 28 33 34 36 40 43 41 36 37 38 42 47 51 56 59 64 70 77 79 82 89 91 93 97 99 89 75 73 51 40 35 35 35 36 39 44 48 51 55 59
23 28 25 26 27 33 33 35 36 40 41 38 36 38 39 44 48 53 56 61 67 72 77 80 84 89 92 97 101 96 93 77 73 61 46 38 36 37 38 40 44 48 51 54
31 27 24 25 29 31 34 37 34 37 41 39 37 36 38 39 44 50 52 56 62 67 72 76 79 83 86 93 96 101 98 91 80 75 70 57 45 38 38 38 39 41 45 49
Wind_Direction
321 322 321 324 327 330 330 333 334 333 332 329 329 329 329 332 333 331 331 326 319 315 320 328 329 325 323 329 333 335 339 342 345 345 340 337 334 330 322 314 303 293 286 280
324 330 332 332 334 335 339 341 338 337 336 335 334 335 335 336 336 337 334 328 320 324 326 334 334 331 332 335 333 339 344 347 347 345 341 338 334 327 321 313 303 294 287 282
339 341 339 341 340 341 342 341 340 340 340 340 339 339 340 341 340 337 333 330 328 332 339 341 338 336 339 339 340 344 347 347 347 343 340 338 334 329 324 316 311 304 296 287
345 342 344 343 341 342 344 345 346 346 345 342 343 344 343 345 343 335 338 335 334 339 344 344 341 341 345 342 346 347 349 347 346 343 341 339 335 331 324 316 310 306 303 299
340 342 344 345 342 342 343 345 347 348 345 343 345 344 344 347 344 344 342 340 337 345 347 348 343 346 350 346 349 351 351 350 346 344 345 344 341 338 332 326 321 316 311 306
338 342 344 343 342 343 343 344 347 347 345 345 345 346 352 354 351 350 348 342 340 344 348 350 347 351 349 348 351 353 353 350 349 350 350 350 348 344 341 336 331 328 322 314
338 340 341 342 343 343 343 342 346 345 344 346 350 359 356 356 356 356 352 345 344 351 350 351 351 355 351 353 357 356 355 353 353 356 355 355 352 353 350 347 343 340 335 330
332 338 341 344 344 343 343 342 347 346 349 352 354 0 357 357 360 357 354 350 352 350 353 355 356 358 353 356 1 358 356 357 357 360 360 0 359 358 358 357 352 348 346 338
327 334 340 343 345 344 342 343 347 347 352 352 357 360 2 358 3 0 356 354 355 355 354 359 0 1 355 360 2 360 359 0 2 4 4 5 4 3 5 4 360 354 352 350
324 332 337 342 344 343 341 343 347 348 353 352 1 3 1 6 7 6 4 357 356 356 358 2 3 3 358 3 2 1 2 4 5 6 8 9 10 9 11 10 5 3 357 357
323 329 336 342 342 341 340 344 348 351 355 356 1 2 4 4 9 10 8 1 358 359 3 5 3 3 2 3 1 2 5 7 8 9 11 13 14 16 16 13 12 12 9 3
323 329 335 339 339 341 343 349 349 354 357 0 2 4 2 12 12 12 9 7 0 2 8 7 6 6 2 359 360 2 7 8 10 12 13 16 18 19 21 19 16 18 18 15
323 329 334 337 340 343 346 349 350 358 0 4 6 5 12 10 10 10 12 8 7 3 10 8 8 6 2 356 1 2 7 9 12 13 15 16 19 21 23 24 24 22 22 23
322 328 332 335 338 345 349 350 354 359 2 1 5 6 6 11 15 15 17 10 7 8 10 11 7 7 2 358 358 1 7 8 12 14 15 17 20 23 24 27 27 27 26 26
320 326 329 335 345 350 353 352 357 358 4 1 5 3 5 12 15 17 17 17 15 11 12 14 9 7 4 360 356 358 5 8 12 13 15 17 20 23 25 29 31 31 30 31
315 322 329 339 348 350 354 353 359 357 3 1 5 4 7 7 13 16 16 17 18 14 15 14 12 6 5 5 0 358 4 9 12 12 16 18 20 22 25 28 31 33 33 33
311 319 329 344 349 352 353 355 358 357 2 4 5 4 4 3 11 14 15 18 19 21 18 19 17 12 6 7 5 2 4 9 10 11 15 19 21 22 23 27 31 33 34 36
308 319 331 343 350 353 352 354 356 359 0 5 3 5 4 6 12 18 16 18 21 21 25 21 21 16 10 6 9 4 2 7 9 11 14 20 22 22 23 25 28 32 33 35
305 322 332 344 350 351 355 354 356 358 358 4 3 6 5 6 13 11 16 18 21 26 28 28 27 22 19 13 10 7 3 5 9 9 15 18 21 23 22 24 27 29 32 33
301 317 331 341 348 351 354 355 354 356 356 2 4 5 6 7 11 9 12 15 19 23 29 31 30 28 25 21 15 8 7 4 9 11 14 17 18 21 23 23 24 27 29 31
297 317 328 336 343 351 353 356 353 354 354 356 5 4 5 6 9 13 12 14 19 21 25 28 31 33 29 24 23 15 8 7 4 10 13 15 15 18 22 25 26 25 26 28
292 312 321 327 338 347 351 355 351 352 350 352 1 3 6 6 7 14 13 14 15 18 23 25 32 33 30 29 26 23 17 11 8 5 9 13 13 14 17 22 25 27 27 27
277 287 307 313 330 337 347 356 350 350 347 350 354 0 4 6 6 10 13 12 14 18 20 25 26 31 34 31 28 27 25 19 12 9 7 8 11 14 14 17 21 24 27 27
273 278 291 306 323 329 341 352 352 347 345 348 348 356 2 5 5 6 12 11 14 16 19 21 26 27 31 34 33 32 32 29 25 16 9 6 6 8 13 15 17 21 24 25
262 277 294 306 318 320 334 341 350 345 344 346 346 350 1 3 4 5 10 11 11 16 18 20 22 25 27 32 31 27 32 31 29 28 19 11 6 6 8 11 14 16 18 21
260 273 279 293 306 312 326 331 343 346 342 344 343 345 352 359 1 2 4 7 9 12 16 17 19 23 24 27 31 32 30 32 36 30 27 23 15 9 7 6 8 12 15 16
Height
10826 10822 10817 10813 10807 10802 10796 10788 10780 10772 10764 10754 10746 10737 10727 10717 10705 10691 10671 10649 10627 10605 10583 10560 10536 10518 10505 10491 10482 10475 10466 10456 10446 10436 10426 10415 10403 10392 10380 10370 10359 10348 10338 10330
10822 10818 10814 10809 10804 10797 10790 10782 10774 10767 10758 10748 10738 10730 10720 10709 10697 10681 10660 10633 10608 10591 10567 10545 10524 10508 10495 10486 10479 10470 10460 10449 10439 10429 10418 10406 10393 10378 10363 10347 10332 10321 10313 10308
10819 10816 10811 10806 10799 10793 10787 10779 10770 10761 10751 10743 10733 10721 10713 10702 10688 10673 10650 10626 10598 10573 10550 10531 10512 10500 10490 10482 10474 10465 10455 10445 10435 10424 10412 10396 10378 10359 10339 10316 10302 10292 10288 10283
10817 10813 10808 10803 10796 10789 10782 10774 10765 10755 10746 10738 10728 10720 10707 10695 10680 10662 10639 10612 10587 10562 10540 10521 10504 10493 10484 10478 10470 10461 10452 10441 10431 10419 10405 10389 10371 10348 10324 10304 10286 10273 10263 10256
10816 10811 10806 10800 10793 10786 10777 10769 10760 10749 10740 10731 10722 10713 10701 10687 10670 10650 10627 10599 10574 10551 10531 10513 10499 10489 10481 10476 10468 10459 10450 10440 10428 10416 10400 10380 10355 10329 10304 10284 10268 10257 10247 10239
10814 10808 10803 10798 10791 10783 10774 10764 10755 10746 10736 10728 10719 10707 10695 10678 10660 10639 10616 10589 10564 10543 10523 10506 10494 10485 10479 10473 10465 10457 10447 10436 10424 10409 10390 10368 10343 10318 10292 10271 10255 10244 10235 10227
10811 10806 10801 10795 10788 10780 10771 10762 10755 10747 10737 10725 10715 10703 10688 10674 10657 10635 10608 10583 10557 10536 10516 10501 10491 10482 10477 10470 10462 10453 10443 10432 10418 10403 10383 10360 10333 10307 10285 10265 10248 10234 10223 10216
10809 10804 10798 10793 10786 10777 10768 10759 10749 10739 10729 10719 10707 10698 10686 10670 10654 10632 10607 10580 10554 10532 10513 10497 10488 10480 10474 10468 10460 10451 10441 10428 10415 10399 10379 10356 10328 10302 10280 10259 10243 10229 10219 10209
10806 10801 10796 10790 10782 10773 10764 10754 10746 10735 10724 10716 10708 10697 10681 10669 10649 10628 10603 10577 10551 10528 10510 10494 10484 10478 10473 10466 10457 10449 10439 10428 10414 10397 10378 10356 10328 10300 10275 10256 10242 10227 10215 10205
10803 10798 10793 10786 10778 10770 10761 10752 10744 10734 10725 10713 10704 10692 10680 10662 10645 10624 10601 10574 10549 10527 10506 10491 10483 10477 10471 10465 10458 10450 10440 10428 10413 10398 10379 10358 10331 10302 10276 10258 10242 10228 10215 10204
10800 10795 10790 10784 10775 10767 10758 10749 10739 10729 10721 10712 10703 10691 10675 10660 10641 10620 10598 10573 10548 10524 10504 10491 10484 10476 10470 10465 10458 10450 10440 10428 10414 10398 10381 10360 10336 10308 10282 10263 10247 10231 10218 10206
10797 10792 10787 10781 10773 10765 10755 10746 10736 10728 10720 10710 10699 10688 10675 10658 10639 10619 10599 10576 10549 10526 10507 10494 10485 10476 10470 10465 10458 10450 10439 10428 10415 10400 10385 10365 10343 10318 10293 10271 10252 10235 10222 10210
10794 10789 10784 10777 10770 10762 10753 10744 10734 10725 10717 10709 10699 10688 10674 10659 10640 10621 10601 10578 10555 10532 10513 10497 10486 10478 10471 10465 10457 10449 10439 10429 10416 10402 10388 10370 10350 10327 10306 10283 10260 10242 10229 10217
10791 10786 10781 10776 10769 10762 10752 10742 10733 10724 10715 10707 10698 10689 10676 10663 10645 10624 10603 10584 10561 10537 10517 10500 10487 10478 10471 10465 10457 10448 10439 10429 10417 10404 10391 10376 10357 10339 10320 10297 10273 10256 10239 10225
10788 10784 10778 10773 10765 10758 10749 10740 10731 10723 10715 10706 10697 10686 10672 10659 10643 10626 10607 10586 10564 10541 10521 10504 10489 10479 10470 10464 10457 10448 10439 10430 10419 10407 10395 10380 10365 10349 10332 10311 10289 10268 10251 10236
10784 10780 10775 10770 10763 10754 10747 10738 10729 10720 10713 10705 10695 10684 10673 10658 10644 10628 10611 10590 10569 10547 10526 10507 10493 10479 10471 10464 10456 10448 10439 10430 10420 10410 10399 10386 10372 10358 10343 10324 10303 10284 10266 10248
10780 10777 10772 10767 10761 10752 10744 10736 10728 10720 10713 10705 10696 10686 10675 10660 10646 10631 10615 10595 10576 10555 10532 10514 10497 10482 10470 10463 10456 10448 10439 10431 10423 10414 10403 10390 10378 10366 10352 10336 10317 10298 10282 10263
10776 10773 10769 10765 10759 10751 10743 10735 10726 10719 10712 10705 10697 10687 10677 10665 10648 10634 10618 10602 10584 10563 10541 10521 10502 10485 10471 10463 10455 10447 10441 10433 10426 10417 10407 10395 10384 10373 10360 10345 10329 10312 10297 10280
10772 10769 10765 10762 10756 10749 10741 10732 10725 10718 10712 10705 10696 10687 10677 10666 10651 10635 10623 10607 10589 10572 10550 10529 10509 10492 10476 10464 10456 10448 10442 10435 10428 10420 10410 10399 10389 10378 10366 10354 10340 10325 10310 10294
10768 10766 10762 10759 10754 10749 10740 10732 10724 10717 10711 10704 10696 10688 10679 10668 10656 10639 10624 10611 10594 10579 10560 10537 10518 10500 10485 10470 10458 10450 10443 10437 10430 10423 10413 10403 10394 10384 10373 10361 10348 10336 10322 10307
10763 10761 10758 10755 10751 10746 10739 10731 10724 10716 10709 10703 10696 10688 10680 10670 10659 10643 10629 10616 10601 10585 10567 10548 10529 10510 10495 10479 10465 10454 10446 10440 10433 10425 10417 10408 10399 10390 10380 10369 10357 10344 10330 10316
10758 10757 10754 10751 10748 10743 10737 10730 10722 10715 10708 10701 10695 10688 10681 10671 10661 10649 10635 10621 10607 10591 10576 10559 10539 10520 10503 10489 10474 10460 10447 10439 10434 10428 10420 10412 10404 10395 10386 10375 10365 10353 10340 10327
10753 10752 10749 10747 10744 10740 10735 10728 10722 10715 10707 10700 10694 10688 10681 10672 10663 10652 10639 10626 10612 10598 10583 10568 10550 10533 10514 10500 10485 10469 10455 10443 10435 10428 10423 10416 10407 10399 10390 10381 10370 10358 10347 10335
10747 10745 10744 10742 10740 10736 10732 10727 10721 10713 10706 10699 10693 10688 10681 10673 10664 10654 10644 10631 10619 10605 10591 10577 10560 10545 10529 10512 10494 10481 10465 10452 10440 10431 10424 10418 10411 10402 10394 10384 10375 10365 10355 10345
10740 10739 10739 10737 10735 10731 10729 10724 10718 10712 10705 10699 10692 10686 10681 10673 10666 10656 10646 10635 10623 10611 10598 10584 10569 10554 10540 10522 10503 10491 10477 10462 10449 10437 10427 10419 10412 10404 10396 10387 10379 10370 10361 10351
10732 10734 10733 10731 10730 10727 10724 10720 10715 10710 10704 10698 10691 10684 10679 10673 10665 10657 10648 10638 10628 10616 10605 10591 10578 10564 10551 10534 10517 10502 10488 10476 10460 10448 10436 10425 10414 10406 10399 10392 10385 10377 10369 10361